1330128025110,55.3766
1330128085110,55.4035
1330128145110,55.5107
1330128205110,55.5416
1330128265110,55.5372
1330128325110,55.4635
1330128385110,55.6253
1330128445110,55.5197
1330128505110,55.5818
1330128565110,55.4750
1330128625110,55.4990
1330128685110,55.6046
1330128745110,55.6324
1330128805110,55.6052
1330128865110,55.5179
1330128925110,55.5752
1330128985110,55.6045
1330129045110,55.6184
1330129105110,55.7263
1330129165110,55.6765
1330129225110,55.6456
1330129285110,55.6452
1330129345110,55.6834
1330129405110,55.6452
1330129465110,55.8408
1330129525110,55.9569
1330129585110,55.6462
1330129645110,55.7950
1330129705110,55.6831
1330129765110,55.7789
1330129825110,55.7710
1330129885110,55.8704
1330129945110,55.9385
1330130005110,55.7129
1330130065110,55.7878
1330130125110,55.6659
1330130185110,55.8644
1330130245110,55.7764
1330130305110,55.8083
1330130365110,55.7373
1330130425110,55.7420
1330130485110,55.9354
1330130545110,55.9114
1330130605110,55.9378
1330130665110,55.9086
1330130725110,55.9388
1330130785110,55.9122
1330130845110,55.7652
1330130905110,55.8737
1330130965110,55.8828
1330131025110,55.9130
1330131085110,55.9258
1330131145110,55.8422
1330131205110,56.0547
1330131265110,55.8502
1330131325110,56.0482
1330131385110,55.9252
1330131445110,55.8906
1330131505110,56.0279
1330131565110,55.9720
1330131625121,55.8902
1330131685121,55.8851
1330131745121,55.8333
1330131805121,55.8715
1330131865121,55.9662
1330131925121,55.9561
1330131985121,56.0608
1330132045121,56.0240
1330132105121,55.9249
1330132165121,55.8951
1330132225121,56.0289
1330132285121,55.9494
1330132345121,55.9857
1330132405121,56.0280
1330132465121,56.0756
1330132525121,55.9548
1330132585121,55.8899
1330132645121,56.0734
1330132705121,56.0892
1330132765121,56.1201
1330132825121,56.0718
1330132885121,55.9701
1330132945121,56.0881
1330133005121,56.0618
1330133065121,55.9960
1330133125121,56.0757
1330133185121,56.0804
1330133245121,55.9687
1330133305121,56.1991
1330133365121,56.0700
1330133425121,56.1313
1330133485121,55.9817
1330133545121,56.1615
1330133605121,56.2072
1330133665121,55.9585
1330133725121,56.0177
1330133785121,56.0153
1330133845121,56.0040
1330133905121,56.2254
1330133965121,56.0271
1330134025121,56.0971
1330134085121,56.0292
1330134145121,56.0457
1330134205121,56.0227
1330134265121,56.0223
1330134325121,56.1450
1330134385121,56.1088
1330134445121,56.0071
1330134505121,56.0413
1330134565121,56.0116
1330134625121,56.0333
1330134685121,55.9818
1330134745121,55.9686
1330134805121,55.8842
1330134865121,55.9546
1330134925121,56.0392
1330134985121,56.1033
1330135045121,56.0751
1330135105121,55.9697
1330135165121,55.8743
1330135225133,56.1846
1330135285133,56.0205
1330135345133,56.0478
1330135405133,55.8917
1330135465133,56.1246
1330135525133,56.1154
1330135585133,55.9760
1330135645133,56.0963
1330135705133,56.0364
1330135765133,56.0645
1330135825133,55.8258
1330135885133,56.0755
1330135945133,56.0464
1330136005133,55.8635
1330136065133,55.8296
1330136125133,55.9294
1330136185133,55.8669
1330136245133,55.9260
1330136305133,55.9649
1330136365133,56.0898
1330136425133,56.0949
1330136485133,56.0037
1330136545133,56.0130
1330136605133,55.9481
1330136665133,55.9875
1330136725133,55.9160
1330136785133,56.0017
1330136845133,56.1096
1330136905133,56.0034
1330136965133,55.9881
1330137025133,56.0269
1330137085133,56.0089
1330137145133,56.1435
1330137205133,56.0652
1330137265133,56.1434
1330137325133,56.0645
1330137385133,56.0097
1330137445133,56.0181
1330137505133,56.1072
1330137565133,56.1836
1330137625133,56.1392
1330137685133,56.0452
1330137745133,55.9749
1330137805133,56.1108
1330137865133,55.9945
1330137925133,56.0887
1330137985133,56.1052
1330138045133,56.0848
1330138105133,56.0038
1330138165133,56.1197
1330138225133,55.9208
1330138285133,55.9905
1330138345133,56.0401
1330138405133,56.0385
1330138465133,56.0255
1330138525133,56.0414
1330138585133,55.9455
1330138645133,56.0146
1330138705133,55.9461
1330138765133,56.0550
1330138825144,56.0050
1330138885144,56.0385
1330138945144,56.0651
1330139005144,56.0218
1330139065144,55.9481
1330139125144,56.0012
1330139185144,56.0751
1330139245144,55.9082
1330139305144,55.9398
1330139365144,56.1118
1330139425144,55.9926
1330139485144,56.0784
1330139545144,55.9757
1330139605144,56.0649
1330139665144,56.0627
1330139725144,56.0778
1330139785144,56.0024
1330139845144,55.8321
1330139905144,56.1472
1330139965144,55.9488
1330140025144,55.9914
1330140085144,55.9832
1330140145144,56.1390
1330140205144,56.0757
1330140265144,55.9544
1330140325144,56.0360
1330140385144,55.9623
1330140445144,56.0248
1330140505144,56.0407
1330140565144,56.0625
1330140625144,55.9220
1330140685144,55.9990
1330140745144,56.1230
1330140805144,56.1038
1330140865144,55.9956
1330140925144,56.0170
1330140985144,56.1967
1330141045144,56.0125
1330141105144,56.2133
1330141165144,56.0837
1330141225144,56.1051
1330141285144,56.0866
1330141345144,56.0574
1330141405144,56.2042
1330141465144,56.0362
1330141525144,56.1422
1330141585144,56.1262
1330141645144,56.0583
1330141705144,56.3253
1330141765144,56.0735
1330141825144,55.9130
1330141885144,56.2116
1330141945144,56.2296
1330142005144,56.2784
1330142065144,56.0181
1330142125144,56.1012
1330142185144,56.0512
1330142245144,56.1315
1330142305144,56.2200
1330142365144,56.1839
1330142425156,56.0261
1330142485156,56.1884
1330142545156,56.0500
1330142605156,56.1169
1330142665156,56.1848
1330142725156,56.1210
1330142785156,56.1076
1330142845156,55.9786
1330142905156,56.1900
1330142965156,56.0023
1330143025156,56.1165
1330143085156,55.9645
1330143145156,56.0498
1330143205156,56.3106
1330143265156,56.1845
1330143325156,56.0798
1330143385156,56.2248
1330143445156,56.1343
1330143505156,56.0478
1330143565156,56.0880
1330143625156,56.0643
1330143685156,56.0318
1330143745156,56.1564
1330143805156,56.0079
1330143865156,56.1096
1330143925156,56.2255
1330143985156,56.0809
1330144045156,56.2966
1330144105156,56.1387
1330144165156,56.2124
1330144225156,56.2462
1330144285156,56.0277
1330144345156,56.1405
1330144405156,56.2473
1330144465156,56.1475
1330144525156,56.1731
1330144585156,56.3641
1330144645156,56.1589
1330144705156,56.1811
1330144765156,56.0510
1330144825156,56.1077
1330144885156,56.2362
1330144945156,56.1884
1330145005156,56.1264
1330145065156,56.1968
1330145125156,56.0722
1330145185156,56.3691
1330145245156,56.2079
1330145305156,56.1551
1330145365156,56.2237
1330145425156,56.1185
1330145485156,56.0781
1330145545156,56.0376
1330145605156,56.1188
1330145665156,56.1340
1330145725156,56.0789
1330145785156,56.1275
1330145845156,56.0627
1330145905156,56.1958
1330145965156,56.0903
1330146025168,56.1701
1330146085168,56.1738
1330146145168,56.1272
1330146205168,56.1639
1330146265168,56.1742
1330146325168,56.0319
1330146385168,56.0873
1330146445168,56.1344
1330146505168,56.0806
1330146565168,56.2485
1330146625168,56.2018
1330146685168,56.1059
1330146745168,56.1195
1330146805168,56.1508
1330146865168,56.2118
1330146925168,56.1701
1330146985168,56.1069
1330147045168,56.0813
1330147105168,56.1602
1330147165168,56.3745
1330147225168,56.1284
1330147285168,56.0858
1330147345168,56.2218
1330147405168,56.1604
1330147465168,56.1417
1330147525168,56.0164
1330147585168,56.0075
1330147645168,56.1479
1330147705168,56.2209
1330147765168,56.1518
1330147825168,56.3314
1330147885168,56.1731
1330147945168,56.2932
1330148005168,56.1823
1330148065168,56.0747
1330148125168,56.1798
1330148185168,56.2189
1330148245168,56.1322
1330148305168,56.0864
1330148365168,56.0330
1330148425168,56.0397
1330148485168,56.0902
1330148545168,56.0467
1330148605168,56.1716
1330148665168,56.0811
1330148725168,56.2207
1330148785168,56.1584
1330148845168,56.0002
1330148905168,56.0328
1330148965168,55.9836
1330149025168,55.9537
1330149085168,56.2622
1330149145168,56.1112
1330149205168,56.1138
1330149265168,56.0976
1330149325168,55.9517
1330149385168,55.9895
1330149445168,56.0287
1330149505168,56.0452
1330149565168,56.1379
1330149625179,56.0629
1330149685179,56.0501
1330149745179,56.0157
1330149805179,56.0614
1330149865179,56.0851
1330149925179,56.1380
1330149985179,56.0281
1330150045179,56.0509
1330150105179,55.9784
1330150165179,56.0898
1330150225179,55.9427
1330150285179,55.8585
1330150345179,55.9958
1330150405179,55.9774
1330150465179,55.9554
1330150525179,56.0794
1330150585179,56.1308
1330150645179,55.9324
1330150705179,55.9790
1330150765179,55.9042
1330150825179,56.0569
1330150885179,55.9552
1330150945179,55.9355
1330151005179,55.8742
1330151065179,55.9560
1330151125179,55.9592
1330151185179,55.7665
1330151245179,56.0434
1330151305179,56.0050
1330151365179,55.9223
1330151425179,55.9254
1330151485179,56.0421
1330151545179,55.8788
1330151605179,55.8429
1330151665179,55.7674
1330151725179,56.0177
1330151785179,56.1188
1330151845179,55.9280
1330151905179,56.1030
1330151965179,55.9256
1330152025179,56.0361
1330152085179,55.9827
1330152145179,55.9125
1330152205179,55.8229
1330152265179,56.1390
1330152325179,56.0294
1330152385179,56.0741
1330152445179,56.0925
1330152505179,55.9869
1330152565179,55.9478
1330152625179,55.8559
1330152685179,55.8904
1330152745179,55.8854
1330152805179,55.8818
1330152865179,55.9356
1330152925179,55.8294
1330152985179,55.7230
1330153045179,56.0201
1330153105179,55.7339
1330153165179,55.7755
1330153225191,55.8357
1330153285191,55.8614
1330153345191,56.0044
1330153405191,55.8517
1330153465191,55.7190
1330153525191,55.7103
1330153585191,55.7277
1330153645191,55.7874
1330153705191,55.8587
1330153765191,55.9482
1330153825191,55.8053
1330153885191,55.8236
1330153945191,55.7105
1330154005191,55.8209
1330154065191,55.6179
1330154125191,55.7005
1330154185191,55.6456
1330154245191,55.7425
1330154305191,55.7347
1330154365191,55.6678
1330154425191,55.7381
1330154485191,55.9114
1330154545191,55.8068
1330154605191,55.5878
1330154665191,55.6874
1330154725191,55.7732
1330154785191,55.7547
1330154845191,55.6574
1330154905191,55.5913
1330154965191,55.7671
1330155025191,55.7109
1330155085191,55.7765
1330155145191,55.7946
1330155205191,55.8160
1330155265191,55.7497
1330155325191,55.7197
1330155385191,55.7052
1330155445191,55.6331
1330155505191,55.7227
1330155565191,55.6406
1330155625191,55.7633
1330155685191,55.6335
1330155745191,55.5900
1330155805191,55.8115
1330155865191,55.5983
1330155925191,55.6273
1330155985191,55.6655
1330156045191,55.7380
1330156105191,55.7012
1330156165191,55.7476
1330156225191,55.6235
1330156285191,55.5938
1330156345191,55.8490
1330156405191,55.6135
1330156465191,55.8112
1330156525191,55.6244
1330156585191,55.5511
1330156645191,55.6740
1330156705191,55.6607
1330156765191,55.6275
1330156825203,55.5472
1330156885203,55.5967
1330156945203,55.5901
1330157005203,55.6518
1330157065203,55.8025
1330157125203,55.4399
1330157185203,55.5076
1330157245203,55.5435
1330157305203,55.5788
1330157365203,55.5827
1330157425203,55.6328
1330157485203,55.5363
1330157545203,55.6490
1330157605203,55.6604
1330157665203,55.6189
1330157725203,55.5100
1330157785203,55.5948
1330157845203,55.6690
1330157905203,55.6591
1330157965203,55.5730
1330158025203,55.5074
1330158085203,55.5984
1330158145203,55.7412
1330158205203,55.6004
1330158265203,55.7296
1330158325203,55.7159
1330158385203,55.6485
1330158445203,55.6612
1330158505203,55.6150
1330158565203,55.6134
1330158625203,55.7758
1330158685203,55.6602
1330158745203,55.7885
1330158805203,55.6731
1330158865203,55.4901
1330158925203,55.8185
1330158985203,55.6474
1330159045203,55.6577
1330159105203,55.6105
1330159165203,55.7117
1330159225203,55.8367
1330159285203,55.6658
1330159345203,55.6000
1330159405203,55.6522
1330159465203,55.6268
1330159525203,55.6199
1330159585203,55.6460
1330159645203,55.5690
1330159705203,55.5606
1330159765203,55.4897
1330159825203,55.6247
1330159885203,55.6901
1330159945203,55.5264
1330160005203,55.5752
1330160065203,55.4724
1330160125203,55.5093
1330160185203,55.6639
1330160245203,55.5650
1330160305203,55.5962
1330160365203,55.5822
1330160425215,55.5208
1330160485215,55.5583
1330160545215,55.6996
1330160605215,55.4115
1330160665215,55.6869
1330160725215,55.6486
1330160785215,55.5505
1330160845215,55.7089
1330160905215,55.7130
1330160965215,55.6722
1330161025215,55.7527
1330161085215,55.6055
1330161145215,55.6896
1330161205215,55.6255
1330161265215,55.7073
1330161325215,55.7173
1330161385215,55.5291
1330161445215,55.6679
1330161505215,55.7634
1330161565215,55.6553
1330161625215,55.7081
1330161685215,55.6327
1330161745215,55.5753
1330161805215,55.7026
1330161865215,55.6903
1330161925215,55.6678
1330161985215,55.7410
1330162045215,55.5548
1330162105215,55.6370
1330162165215,55.6989
1330162225215,55.8672
1330162285215,55.5823
1330162345215,55.5999
1330162405215,55.7354
1330162465215,55.5588
1330162525215,55.6474
1330162585215,55.6561
1330162645215,55.7672
1330162705215,55.5925
1330162765215,55.6838
1330162825215,55.7115
1330162885215,55.6571
1330162945215,55.6926
1330163005215,55.6417
1330163065215,55.7123
1330163125215,55.5547
1330163185215,55.8006
1330163245215,55.6032
1330163305215,55.7899
1330163365215,55.4595
1330163425215,55.6228
1330163485215,55.6401
1330163545215,55.5704
1330163605215,55.6855
1330163665215,55.6099
1330163725215,55.5873
1330163785215,55.5624
1330163845215,55.6656
1330163905215,55.5854
1330163965215,55.6233
1330164025227,55.7411
1330164085227,55.6972
1330164145227,55.6357
1330164205227,55.6963
1330164265227,55.5858
1330164325227,55.7066
1330164385227,55.6974
1330164445227,55.7205
1330164505227,55.7608
1330164565227,55.7222
1330164625227,55.5944
1330164685227,55.6994
1330164745227,55.8603
1330164805227,55.6092
1330164865227,55.7179
1330164925227,55.7444
1330164985227,55.7076
1330165045227,55.8040
1330165105227,55.7453
1330165165227,55.7038
1330165225227,55.6818
1330165285227,55.7120
1330165345227,55.6440
1330165405227,55.7265
1330165465227,55.8401
1330165525227,55.7837
1330165585227,55.4873
1330165645227,55.8608
1330165705227,55.7298
1330165765227,55.8765
1330165825227,55.7201
1330165885227,55.6989
1330165945227,55.6434
1330166005227,55.5954
1330166065227,55.7303
1330166125227,55.6806
1330166185227,55.8028
1330166245227,55.7109
1330166305227,55.7010
1330166365227,55.4953
1330166425227,55.5609
1330166485227,55.7444
1330166545227,55.7209
1330166605227,55.7134
1330166665227,55.8834
1330166725227,55.7746
1330166785227,55.5492
1330166845227,55.8070
1330166905227,55.6305
1330166965227,55.7627
1330167025227,55.6732
1330167085227,55.5752
1330167145227,55.6520
1330167205227,55.6677
1330167265227,55.6493
1330167325227,55.6864
1330167385227,55.5528
1330167445227,55.6167
1330167505227,55.6444
1330167565227,55.7690
1330167625239,55.7311
1330167685239,55.6872
1330167745239,55.6828
1330167805239,55.6913
1330167865239,55.6020
1330167925239,55.6658
1330167985239,55.7344
1330168045239,55.6757
1330168105239,55.8514
1330168165239,55.7621
1330168225239,55.7788
1330168285239,55.6400
1330168825239,55.8596
1330168885239,55.5858
1330168945239,55.6698
1330169005239,55.7502
1330169065239,55.6606
1330169125239,55.5793
1330169185239,55.6953
1330169245239,55.7102
1330169305239,55.6447
1330169365239,55.6387
1330169425239,55.7027
1330169485239,55.7702
1330169545239,55.7547
1330169605239,55.6940
1330169665239,55.8089
1330169725239,55.6931
1330169785239,55.7154
1330169845239,55.5965
1330169905239,55.5414
1330169965239,55.7214
1330170025239,55.6109
1330170085239,55.8637
1330170145239,55.5598
1330170205239,55.6408
1330170265239,55.7378
1330170325239,55.6847
1330170385239,55.7688
1330170445239,55.5605
1330170505239,55.6254
1330170565239,55.7018
1330170625239,55.7077
1330170685239,55.6857
1330170745239,55.8668
1330170805239,55.7397
1330170865239,55.6502
1330170925239,55.7037
1330170985239,55.8076
1330171045239,55.6855
1330171105239,55.7516
1330171165239,55.7738
1330171225250,55.6296
1330171285250,55.5842
1330171345250,55.6773
1330171405250,55.7260
1330171465250,55.7459
1330171525250,55.6501
1330171585250,55.6576
1330171645250,55.7248
1330171705250,55.7476
1330171765250,55.5355
1330171825250,55.5511
1330171885250,55.6153
1330171945250,55.6730
1330172005250,55.5677
1330172065250,55.6065
1330172125250,55.6525
1330172185250,55.5391
1330172245250,55.6045
1330172305250,55.5797
1330172365250,55.5985
1330172425250,55.6917
1330172485250,55.6768
1330172545250,55.5850
1330172605250,55.6965
1330172665250,55.7079
1330172725250,55.7336
1330172785250,55.6231
1330172845250,55.6223
1330172905250,55.7606
1330172965250,55.6552
1330173025250,55.6076
1330173085250,55.7771
1330173145250,55.6659
1330173205250,55.5467
1330173265250,55.6711
1330173325250,55.7199
1330173385250,55.6053
1330173445250,55.5136
1330173505250,55.7198
1330173565250,55.5871
1330173625250,55.7500
1330173685250,55.6311
1330173745250,55.6192
1330173805250,55.6450
1330173865250,55.6994
1330173925250,55.6222
1330173985250,55.6598
1330174045250,55.6716
1330174105250,55.8276
1330174165250,55.6337
1330174225250,55.8326
1330174285250,55.7480
1330174345250,55.6322
1330174405250,55.6042
1330174465250,55.8438
1330174525250,55.8859
1330174585250,55.9103
1330174645250,55.7161
1330174705250,55.7379
1330174765250,55.8547
1330174825262,55.8106
1330174885262,55.8001
1330174945262,55.8438
1330175005262,55.7231
1330175065262,55.7447
1330175125262,55.8382
1330175185262,55.7090
1330175245262,55.7894
1330175305262,55.8807
1330175365262,55.8264
1330175425262,55.7446
1330175485262,55.9452
1330175545262,55.9084
1330175605262,55.8248
1330175665262,55.8734
1330175725262,55.7915
1330175785262,55.8206
1330175845262,55.7856
1330175905262,55.8069
1330175965262,55.8900
1330176025262,55.8021
1330176085262,55.9148
1330176145262,55.8893
1330176205262,55.8845
1330176265262,55.8205
1330176325262,55.8047
1330176385262,55.8198
1330176445262,55.9046
1330176505262,55.8444
1330176565262,55.8838
1330176625262,55.8237
1330176685262,55.8910
1330176745262,55.9986
1330176805262,55.7849
1330176865262,55.7973
1330176925262,55.9063
1330176985262,55.8915
1330177045262,55.9877
1330177105262,55.8540
1330177165262,55.7566
1330177225262,55.8488
1330177285262,55.8236
1330177345262,55.7243
1330177405262,55.9330
1330177465262,55.7985
1330177525262,55.9770
1330177585262,55.8731
1330177645262,55.7294
1330177705262,55.8236
1330177765262,55.8078
1330177825262,55.8264
1330177885262,55.8218
1330177945262,56.0376
1330178005262,55.9113
1330178065262,55.9020
1330178125262,55.6545
1330178185262,55.7258
1330178245262,55.6655
1330178305262,55.7583
1330178365262,55.6642
1330178425274,55.7767
1330178485274,55.9127
1330178545274,55.8890
1330178605274,55.7643
1330178665274,55.7985
1330178725274,55.8560
1330178785274,55.7854
1330178845274,55.7695
1330178905274,55.7698
1330178965274,55.9270
1330179025274,55.8946
1330179085274,55.8463
1330179145274,55.7409
1330179205274,55.7737
1330179265274,55.7150
1330179325274,55.8096
1330179385274,55.6290
1330179445274,55.8827
1330179505274,55.7328
1330179565274,55.6946
1330179625274,55.7317
1330179685274,55.7171
1330179745274,55.7484
1330179805274,55.6274
1330179865274,55.7610
1330179925274,55.7278
1330179985274,55.6376
1330180045274,55.6616
1330180105274,55.7423
1330180165274,55.8013
1330180225274,55.7704
1330180285274,55.6664
1330180345274,55.8369
1330180405274,55.6483
1330180465274,55.6823
1330180525274,55.8711
1330180585274,55.8698
1330180645274,55.7215
1330180705274,55.6035
1330180765274,55.6554
1330180825274,55.6057
1330180885274,55.7108
1330180945274,55.8734
1330181005274,55.8328
1330181065274,55.6693
1330181125274,55.7357
1330181185274,55.6907
1330181245274,55.7704
1330181305274,55.6680
1330181365274,55.7140
1330181425274,55.6879
1330181485274,55.5743
1330181545274,55.8166
1330181605274,55.6936
1330181665274,55.7916
1330181725274,55.7798
1330181785274,55.9090
1330181845274,55.8657
1330181905274,55.7420
1330181965274,55.8410
1330182025285,55.7779
1330182085285,55.7481
1330182145285,55.8480
1330182205285,55.9821
1330182265285,55.7136
1330182325285,55.8215
1330182385285,55.7972
1330182445285,55.9060
1330182505285,55.9065
1330182565285,55.9789
1330182625285,56.0986
1330182685285,55.9893
1330182745285,55.9613
1330182805285,56.0803
1330182865285,56.0696
1330182925285,55.9023
1330182985285,55.8807
1330183045285,55.9747
1330183105285,55.8642
1330183165285,55.9065
1330183225285,55.9442
1330183285285,56.0192
1330183345285,55.9594
1330183405285,55.9448
1330183465285,56.0353
1330183525285,56.0362
1330183585285,56.0503
1330183645285,56.0230
1330183705285,56.0551
1330183765285,56.0347
1330183825285,55.9589
1330183885285,56.1451
1330183945285,56.0812
1330184005285,55.8653
1330184065285,56.0436
1330184125285,56.0430
1330184185285,55.9996
1330184245285,56.1148
1330184305285,56.0962
1330184365285,55.8560
1330184425285,55.9629
1330184485285,56.0166
1330184545285,55.8898
1330184605285,55.9980
1330184665285,55.9738
1330184725285,56.0262
1330184785285,56.0038
1330184845285,55.9598
1330184905285,56.0104
1330184965285,55.9932
1330185025285,56.1989
1330185085285,56.0659
1330185145285,55.8421
1330185205285,56.0526
1330185265285,55.9641
1330185325285,55.9914
1330185385285,55.9956
1330185445285,56.1214
1330185505285,56.0953
1330185565285,55.9895
1330185625297,55.9227
1330185685297,56.0812
1330185745297,56.1030
1330185805297,56.0921
1330185865297,56.0225
1330185925297,56.0870
1330185985297,56.0752
1330186045297,56.1796
1330186105297,56.0381
1330186165297,56.1051
1330186225297,55.9305
1330186285297,55.8041
1330186345297,56.0721
1330186405297,56.0063
1330186465297,56.5236
1330186525297,56.0348
1330186585297,56.0522
1330186645297,56.0916
1330186705297,56.0412
1330186765297,56.0593
1330186825297,55.9989
1330186885297,55.9222
1330186945297,56.0496
1330187005297,55.9149
1330187065297,56.0248
1330187125297,56.1102
1330187185297,55.9850
1330187245297,56.1077
1330187305297,56.0838
1330187365297,56.1195
1330187425297,56.1752
1330187485297,56.1089
1330187545297,56.0703
1330187605297,55.9998
1330187665297,55.9866
1330187725297,56.0704
1330187785297,56.0874
1330187845297,56.0730
1330187905297,55.9398
1330187965297,56.1616
1330188025297,56.1551
1330188085297,56.1597
1330188145297,55.9030
1330188205297,56.1897
1330188265297,56.0784
1330188325297,56.0597
1330188385297,56.1134
1330188445297,56.0843
1330188505297,56.0367
1330188565297,55.9874
1330188625297,56.1448
1330188685297,55.9240
1330188745297,56.1286
1330188805297,56.0271
1330188865297,56.0300
1330188925297,56.0552
1330188985297,56.1130
1330189045297,56.0068
1330189105297,56.1469
1330189165297,56.0303
1330189225308,55.9619
1330189285308,55.9741
1330189345308,55.7938
1330189405308,56.0247
1330189465308,55.8951
1330189525308,56.0409
1330189585308,55.8545
1330189645308,55.9458
1330189705308,55.8462
1330189765308,55.9773
1330189825308,56.0217
1330189885308,55.9910
1330189945308,55.9265
1330190005308,55.9267
1330190065308,55.9901
1330190125308,55.9045
1330190185308,55.9780
1330190245308,55.7898
1330190305308,55.9259
1330190365308,55.8229
1330190425308,55.9173
1330190485308,55.8317
1330190545308,55.8166
1330190605308,55.9649
1330190665308,55.8915
1330190725308,55.8468
1330190785308,55.9295
1330190845308,55.8004
1330190905308,55.8347
1330190965308,55.9070
1330191025308,55.8244
1330191085308,55.9431
1330191145308,55.7529
1330191205308,55.8292
1330191265308,55.9917
1330191325308,56.0037
1330191385308,55.9885
1330191445308,55.9747
1330191505308,56.1001
1330191565308,55.9889
1330191625308,55.7941
1330191685308,55.8472
1330191745308,55.9958
1330191805308,55.8108
1330191865308,55.9292
1330191925308,55.8959
1330191985308,55.6827
1330192045308,55.9345
1330192105308,56.0348
1330192165308,55.9066
1330192225308,55.9943
1330192285308,55.9302
1330192345308,55.8682
1330192405308,55.9142
1330192465308,55.9214
1330192525308,56.0102
1330192585308,55.8572
1330192645308,55.8500
1330192705308,56.0380
1330192765308,55.8980
1330192825319,55.9073
1330192885319,55.9935
1330192945319,55.9318
1330193005319,56.0651
1330193065319,56.1137
1330193125319,55.9507
1330193185319,56.0849
1330193245319,55.9380
1330193305319,55.9765
1330193365319,56.0780
1330193425319,56.0556
1330193485319,55.9947
1330193545319,56.2233
1330193605319,56.0583
1330193665319,56.0373
1330193725319,55.9749
1330193785319,56.1746
1330193845319,55.9412